2025-197C (65490 NORAD) Tracking and Keplerian Element Data

This shows tracking and keplerian element data for the satellite.

Feedback or suggestion? Click here.




ElementValue
Catalog65490
Name2025-197C
Epoch Orbit1607
Epoch Day354.26690242
Epoch Year2025
RAAN178.4821
Inclination97.4058
Eccentricity0.0013609
Argument of Perigee280.8734
Mean Anonmoly79.097
Mean Motion15.22473978
Decay Rate4.25E-05
L11 65490U 25197C 25354.26690242 .00004250 00000+0 18621-3 0 9999
L22 65490 97.4058 178.4821 0013609 280.8734 79.0970 15.22473978 16075



Live tracking and technical data element details for 2025-197C (NORAD 65490). 2025-197C can be tracked NOW for your location showing map with azimuth and elevation plus other details from your city location.







IsCatalogInMostPopularTable: catalog: 65490, numindb: 5
Update: records affected: 1



GetName: 65490 2025-197C

Hit Count: updated at: Mon, 20 Apr 2026 09:51:54 GMT